Regional Weather Roundup
Issued by NWS

Home | Current Version | Previous Version | Text Only | Print | Product List | Glossary On
Versions: 1 2 3 4 5 6 7 8 9 10 11 12 13 14 15 16 17 18 19 20 21 22 23 24 25 26 27 28 29 30 31 32 33 34 35 36 37 38 39 40 41 42 43 44 45 46 47 48 49 50
000
ASUS42 KTBW 030810
RWRFL
FLORIDA REGIONAL WEATHER ROUNDUP
NATIONAL WEATHER SERVICE TAMPA BAY RUSKIN FL
400 AM EDT WED SEP 03 2014

NOTE: "FAIR" INDICATES FEW OR NO CLOUDS BELOW 12,000 FEET WITH NO
SIGNIFICANT WEATHER AND/OR OBSTRUCTIONS TO VISIBILITY.


FLZ001>010-012>015-112-114-115-030900-
PANHANDLE FLORIDA

CITY           SKY/WX    TMP DP  RH WIND       PRES   REMARKS
PENSACOLA      CLOUDY    78  75  90 N6        30.00F
PENSACOLA NAS  CLOUDY    79  76  90 N3        29.99F
MILTON NAS     CLOUDY    75  72  90 CALM      30.01F
CRESTVIEW      PTCLDY    73  71  93 CALM      30.04S
DUKE FIELD     FAIR      74  74 100 E3        30.03R
VALPARAISO     MOCLDY    77  73  89 NE5       30.02S
MARY ESTHER    CLOUDY    76  71  84 NE3       30.00F
TRI COUNTY     LGT RAIN  74  70  87 N3        30.03F
PANAMA CITY    FAIR      78  74  87 N6        30.01F
TYNDALL AFB    PTCLDY    78  77  94 NE2       30.02F
APALACHICOLA   MOCLDY    78  74  87 NE5       30.00F

STATION/POSITION SKY/WX   TEMP    WIND        PRES    WAVE   SWELL
                          AIR SEA DIR/SP/G            HT/PER HT/PER
                          (F)     (DEG/KT/KT) (MB)    (FT/S) (FT/S)
30.1N   87.6W              83 86  330/  8/ 10 1015.7F   2/ 7   2/ 7
28.8N   86.0W              83 86  320/  6/  8 1015.9F   2/ 5   2/ 5
PANAMA CITY BEAC           79 87   30/  7/ 10 1016.5F
CAPE SAN BLAS    NOT AVBL
TOWER C                    83     340/  8/ 10 1015.6F
28.5N   84.5W              85 86  360/  8/ 12 1015.3F   2/ 7   2/ 7

$$
FLZ011-016>038-118-127-128-134-139-239-030900-
NORTH FLORIDA

CITY           SKY/WX    TMP DP  RH WIND       PRES   REMARKS
MARIANNA       RAIN      73  73 100 NW5       30.01F
TALLAHASSEE    LGT RAIN  74  72  93 NW6       30.02F
PERRY          CLOUDY    72  72 100 CALM      30.02F
CROSS CITY       N/A     74  72  93 NW3       30.00F
LAKE CITY      FAIR      70  70 100 CALM      30.01F
GAINESVILLE    PTCLDY    73  72  96 CALM      30.01F
MAYPORT NAS    CLEAR     77  74  90 CALM      30.01F
JACKSONVILLE   MOCLDY    71  71 100 CALM      30.02F
JAX NAS        MOCLDY    80  74  81 N8        30.03S
JAX CRAIG      PTCLDY    75  73  93 CALM      30.02F
JAX CECIL      PTCLDY    72  72 100 N3        30.02F
FERNANDINA BEA FAIR      77  73  88 CALM      30.00F
ST AUGUSTINE   PTCLDY    77  73  87 CALM      30.02F

STATION/POSITION SKY/WX   TEMP    WIND        PRES    WAVE   SWELL
                          AIR SEA DIR/SP/G            HT/PER HT/PER
                          (F)     (DEG/KT/KT) (MB)    (FT/S) (FT/S)
SHELL POINT                74      10/  5/  8   N/A
KEATON BEACH               75      30/  4/  6 1016.2F
CEDAR KEY                  81     300/  3/  3 1016.0F
FERNANDINA                 78 87  330/  3/  4 1016.1R
30.7N   81.3W                 84                N/A     2/10
MAYPORT                    79 83  200/  3/  4   N/A
31.4N   80.9W              80 84  310/  6/  8 1016.4F
ST AUGUSTINE               78     240/  3/  4 1017.2R

$$
FLZ040-043>046-052-053-057-058-063-144-030900-
INTERIOR CENTRAL FLORIDA

CITY           SKY/WX    TMP DP  RH WIND       PRES   REMARKS
OCALA          PTCLDY    75  72  88 CALM      30.01S
LEESBURG       CLEAR     79  74  84 CALM      30.01F
SANFORD        CLEAR     77  73  87 CALM      30.00F
ORLANDO EXEC   CLEAR     77  73  87 CALM      30.01F
ORLANDO INTL   PTCLDY    75  73  93 CALM      30.01F
WINTER HAVEN   CLEAR     77  72  84 CALM      30.01F
LAKELAND       CLEAR     73  73 100 CALM      30.00F
BARTOW         FAIR      72  72 100 SE3       30.01F
OKEECHOBEE       N/A     72  72 100 MISG      30.01

$$
FLZ041-047-054-059-064-141-147-030900-
EAST CENTRAL FLORIDA

CITY           SKY/WX    TMP DP  RH WIND       PRES   REMARKS
DAYTONA BEACH  PTCLDY    75  73  93 CALM      30.01S
DELAND         SUNNY     73  72  94 CALM      30.02S
JFK SPACE CTR  PTCLDY    73  72  95 CALM      30.00F
CAPE CANAVERAL PTCLDY    74  71  91 S1        29.99F
PATRICK AFB    CLEAR     80  74  82 S5        30.00F
MELBOURNE      CLEAR     77  73  87 CALM      30.00F
VERO BEACH     CLEAR     72  70  93 CALM      30.00F
FT PIERCE      CLEAR     73  70  90 CALM      30.00S
STUART         CLEAR     75  72  88 W3        30.02S

STATION/POSITION SKY/WX   TEMP    WIND        PRES    WAVE   SWELL
                          AIR SEA DIR/SP/G            HT/PER HT/PER
                          (F)     (DEG/KT/KT) (MB)    (FT/S) (FT/S)
28.5N   80.2W              83 87  180/  6/ 10 1016.3F
28.9N   78.5W              80 84   80/  8/ 10 1016.7F   3/12   3/12
TRIDENT PIER               81 86  200/  3/  4 1015.3S
28.4N   80.5W                 83                N/A     2/ 4
27.6N   80.2W                 86                N/A     2/13   2/13

$$
FLZ050-056-061-142-242-148-248-149-249-151-251-155-255-
160-260-030900-
WEST CENTRAL FLORIDA

CITY           SKY/WX    TMP DP  RH WIND       PRES   REMARKS
CRYSTAL RIVER  FAIR      73  72  94 CALM      30.00S
INVERNESS      FAIR      73  73 100 CALM      30.01S
BROOKSVILLE    CLEAR     74  72  93 CALM      30.00F
ZEPHYRHILLS    FAIR      70  70 100 CALM      30.01S
CLEARWATER     CLEAR     77  73  87 SE3       29.98F
TAMPA INTL     MOCLDY    79  72  79 E3        30.00S
TAMPA EXEC     CLEAR     75  72  88 CALM      30.00S
PLANT CITY     CLEAR     75 N/A N/A CALM      30.02S
MACDILL AFB    CLEAR     76  76  99 E5        29.99F
ST PETERSBURG  CLEAR     81  73  76 S10       29.97S
SARASOTA       PTCLDY    80  72  76 E3        29.97F
VENICE           N/A    N/A N/A N/A MISG        N/A

STATION/POSITION SKY/WX   TEMP    WIND        PRES    WAVE   SWELL
                          AIR SEA DIR/SP/G            HT/PER HT/PER
                          (F)     (DEG/KT/KT) (MB)    (FT/S) (FT/S)
CEDAR KEY                  81     300/  3/  3 1016.0F
28.5N   84.5W              85 86  360/  8/ 12 1015.3F   2/ 7   2/ 7
27.3N   84.3W                 87                N/A     2/ 6
CLEARWATER BEACH           81 88  140/  4/  6 1015.0S
MIDDLE TAMPA BAY           79     160/ 10/ 12 1015.5F
VENICE                     75 88   90/  4/  4 1015.1F

$$
FLZ066-069-070-075>078-162-262-165-265-030900-
SOUTHWEST FLORIDA AND KEYS

CITY           SKY/WX    TMP DP  RH WIND       PRES   REMARKS
PUNTA GORDA      N/A     74  72  93 NE3       30.01F
FT MYERS       CLEAR     73  72  96 E3        29.99S
SOUTHWEST INTL CLEAR     73  71  93 CALM      29.99F
NAPLES         CLEAR     73  71  93 E7        29.99S
MARCO ISLAND   MOSUNNY   72  70  94 E5        29.99S
MARATHON       PTCLDY    82  73  74 SE5       29.96F
KEY WEST NAS   MOCLDY    80  73  79 S10       29.96F
KEY WEST INTL  CLEAR     81  71  71 SE17G28   29.97F

STATION/POSITION SKY/WX   TEMP    WIND        PRES    WAVE   SWELL
                          AIR SEA DIR/SP/G            HT/PER HT/PER
                          (F)     (DEG/KT/KT) (MB)    (FT/S) (FT/S)
VENICE                     75 88   90/  4/  4 1015.1F
NAPLES                     74      80/  4/  5 1015.9R
DRY TORTUGAS               84     150/ 11/ 12 1014.2F
NW FL BAY                  79      40/ 10/ 11 1015.5F
SAND KEY                   82     120/ 14/ 17 1014.4F
SOMBRERO KEY               80     150/  4/  5 1015.3F
LONG KEY                   82 86  150/  6/  6 1015.4F
MOLASSES REEF              82 87   90/  8/  8 1014.7F

$$
FLZ067-068-071>074-168-172>174-030900-
SOUTHEAST FLORIDA

CITY           SKY/WX    TMP DP  RH WIND       PRES   REMARKS
W PALM BEACH   PTCLDY    77  74  90 CALM      29.99F
FT LAUDER-EXEC CLEAR     78  76  93 CALM      30.00S
FT LAUDERDALE  PTCLDY    79  74  84 CALM      29.99F
POMPANO BEACH  CLEAR     82  70  66 SE6       30.00S
PEMBROKE PINES CLEAR     77  75  93 N5        30.01S
OPA LOCKA      CLEAR     78  74  87 N5        30.00F
MIAMI          PTCLDY    79  73  82 N5        30.00F
WEST KENDALL   CLEAR     78  73  84 NE3       29.99F
HOMESTEAD      CLEAR     78  73  86 NE2       29.98F

STATION/POSITION SKY/WX   TEMP    WIND        PRES    WAVE   SWELL
                          AIR SEA DIR/SP/G            HT/PER HT/PER
                          (F)     (DEG/KT/KT) (MB)    (FT/S) (FT/S)
PORT EVERGLADES            82     120/  4/  8 1015.6
VIRGINIA KEY               82 86  130/  6/  7   N/A
LAKE WORTH                 82 86  150/  3/  6 1015.5F
FOWEY ROCKS                82 86  120/  8/ 10 1015.6F
SETTLEMENT POINT           80     140/  7/  7 1016.7F

$$



USA.gov is the U.S. government's official web portal to all federal, state and local government web resources and services.